SCP
0 0 0 0 0 -0 0 -0 0 0 0 0 0 0 -0 0 0 0 0 -0 -0 -0 -0 -0 -0 -0 -0 -0 -0 -0 -0 -0 -0 -0 -0 0 0 0 -0 -0 -0 -0 -0 -0 -0 -0 -0 -0 -0
0 0 0 0 0 0 0 0 0 0 -0 0 0 0 0 0 0 0 -0 -0 -0 -0 -0 -0 -0 -0 -0 -0 -0 -0 -0 -0 -0 -0 -0 0 0 -0 0 -0 -0 -0 -0 -0 -0 -0 -0 -0 -0
0 0 0 0 0 0 -0 0 0 0 0 -0 0 0 0 0 0 -0 0 -0 -0 -0 -0 -0 -0 -0 -0 -0 -0 -0 -0 -0 -0 -0 -0 -0 0 0 0 0 0 0 -0 -0 -0 -0 -0 -0 -0
0 0 0 0 0 0 -0 0 0 0 0 0 0 -0 0 0 0 0 -0 -0 -0 -0 0 0 -0 -0 -0 -0 -0 -0 -0 -0 -0 -0 -0 -0 -0 0 0 0 0 0 0 0 0 0 0 0 0
0 0 0 0 0 0 0 -0 -0 0 0 0 0 -0 0 0 0 -0 -0 -0 -0 -0 0 0 -0 -0 -0 -0 0 0 0 0 0 -0 -0 -0 -0 0 0 0 0 0 0 0 0 0 0 0 0
0 0 0 0 0 0 0 0 0 0 0 0 0 0 0 0 0 0 -0 -0 -0 -0 -0 0 0 0 -0 -0 0 0 -0 0 0 0 0 -0 0 0 0 0 0 0 0 0 0 0 0 0 0
0 0 0 0 0 0 0 0 0 0 0 -0 -0 0 0 0 0 -0 -0 -0 -0 -0 -0 0 0 0 0 0 0 -0 0 0 0 0 0 0 0 0 0 -0 -0 -0 -0 0 0 0 0 0 0
0 0 0 0 0 0 0 0 0 0 0 0 -0 -0 -0 0 -0 -0 -0 -0 -0 -0 -0 -0 0 0 0 0 0 0 0 0 0 0 0 0 0 0 0 0 0 -0 0 0 0 0 0 0 0
0 0 0 0 0 0 0 0 0 0 0 0 -0 -0 0 -0 -0 -0 -0 -0 -0 -0 -0 -0 -0 -0 -0 -0 0 0 0 0 0 0 0 0 0 0 0 0 0 -0 -0 0 0 0 -0 -0 -0
0 0 0 0 0 0 0 0 0 0 0 0 0 0 0 -0 -0 -0 -0 -0 -0 -0 -0 -0 -0 -0 -0 -0 -0 0 0 0 0 0 0 0 0 0 0 0 -0 0 0 0 0 0 0 0 0
0 0 0 0 0 0 0 0 0 0 0 0 0 0 0 0 -0 -0 -0 -0 -0 -0 -0 -0 -0 -0 -0 -0 -0 0 0 0 0 0 0 0 0 0 0 0 0 0 0 0 0 0 0 0 0
0 0 0 0 0 0 0 0 0 0 0 0 0 0 0 0 -0 -0 -0 -0 -0 -0 -0 -0 -0 -0 -0 -0 -0 -0 -0 0 0 0 0 0 0 0 0 0 0 0 0 0 0 0 0 0 0
0 0 0 0 0 0 0 0 0 0 0 0 0 0 0 0 0 0 0 0 0 -0 -0 -0 -0 -0 -0 -0 0 0 -0 -0 -0 0 0 0 0 0 0 0 0 0 0 0 0 0 0 0 0
0 0 0 0 0 0 0 0 0 0 0 0 0 0 0 0 0 0 0 0 0 0 0 0 0 0 0 0 0 0 0 0 0 0 0 0 0 0 0 0 0 0 0 0 0 0 0 0 0
0 0 0 0 0 0 0 0 0 0 0 0 0 0 0 0 0 0 0 0 0 0 0 0 0 0 0 0 0 0 0 0 0 0 0 0 0 0 0 0 0 0 0 0 0 0 0 0 0
0 0 0 0 0 0 0 0 0 0 0 0 0 0 0 0 0 0 0 0 0 0 0 0 0 0 0 0 0 0 0 0 0 0 0 0 0 0 0 0 0 0 0 0 0 0 0 0 0
0 0 0 0 0 0 0 0 0 0 0 0 0 0 0 0 0 0 0 0 0 0 0 0 0 0 0 0 0 0 0 0 0 0 0 0 0 0 0 0 0 0 0 0 0 0 0 0 0
0 0 0 0 0 0 0 0 0 0 0 0 0 0 0 0 0 0 0 0 0 0 0 0 0 0 0 0 0 0 0 0 0 0 0 0 0 0 0 0 0 0 0 0 0 0 0 0 0
0 0 0 0 0 0 0 0 0 0 0 0 0 0 0 0 0 0 0 0 0 0 0 0 0 0 0 0 0 0 0 0 0 0 0 0 0 0 0 0 0 0 0 0 0 0 0 0 0
0 0 0 0 0 0 0 0 0 0 0 0 0 0 0 0 0 0 0 0 0 0 0 0 0 0 0 0 0 0 0 0 0 0 0 0 0 0 0 0 0 0 0 0 0 0 0 0 0
0 0 0 0 0 0 0 0 0 0 0 0 0 0 0 0 0 0 0 0 0 0 0 0 0 0 0 0 0 0 0 0 0 0 0 0 0 0 0 0 0 0 0 0 0 0 0 0 0
0 0 0 0 0 0 0 0 0 0 0 0 0 0 0 0 0 0 0 0 0 0 0 0 0 0 0 0 0 0 0 0 0 0 0 0 0 0 0 0 0 0 0 0 0 0 0 0 0
0 0 0 0 0 0 0 0 -0 0 0 0 0 0 0 0 0 0 0 0 0 0 0 0 0 0 0 0 0 0 0 0 0 0 0 0 0 0 0 0 0 0 0 0 0 0 0 0 0
0 0 0 0 0 0 0 0 -0 0 0 0 0 0 0 0 0 0 0 0 0 0 0 0 0 0 0 0 0 0 0 0 0 0 0 0 0 0 0 0 0 0 0 0 0 0 0 0 0
0 0 0 0 0 0 0 0 0 0 0 0 0 0 0 0 0 0 0 0 0 0 0 0 0 0 0 0 0 0 0 0 0 0 0 0 0 0 0 0 0 0 0 0 0 0 0 0 0
0 0 0 0 0 0 0 0 0 0 0 0 -0 0 0 0 0 0 0 0 0 0 0 0 0 0 0 0 0 0 0 0 0 0 0 0 0 0 0 0 0 0 0 0 0 0 0 0 0
0 0 0 0 0 0 0 0 0 0 0 0 0 0 0 0 0 0 0 0 0 0 0 0 0 0 0 0 0 0 0 0 0 0 0 0 0 0 0 0 0 0 0 0 0 0 0 0 0
0 0 0 0 0 0 0 0 0 0 0 0 0 0 0 0 0 0 0 0 0 0 0 0 0 0 0 0 0 0 0 0 0 0 0 0 0 0 0 0 0 0 0 0 0 0 0 0 0
0 0 0 0 0 0 0 0 0 0 0 0 0 0 0 0 0 0 0 0 0 0 0 0 0 0 0 0 0 0 0 0 0 0 0 0 0 0 0 0 0 0 0 0 0 0 0 0 0
0 0 0 0 0 0 0 0 0 0 0 0 0 0 0 0 0 0 0 0 0 0 0 0 0 0 0 0 0 0 0 0 0 0 0 0 0 0 0 0 0 0 0 0 0 0 0 0 0
Wind_Speed_500mb
17 8 8 9 5 7 3 7 5 6 6 7 20 10 10 7 7 3 25 46 43 43 43 41 36 35 32 30 28 28 29 25 22 17 10 7 4 10 18 22 25 25 28 28 29 27 26 27 28
13 2 12 4 7 5 6 5 13 11 12 27 22 17 7 4 7 12 47 40 46 43 43 41 37 36 33 30 28 26 24 22 19 14 11 9 6 9 18 23 26 25 26 26 26 24 24 24 25
9 9 4 6 6 8 8 9 12 14 30 10 10 7 9 11 12 40 40 45 49 43 39 36 36 33 30 28 26 24 23 20 16 14 13 12 10 14 19 21 23 23 23 23 22 19 19 19 21
4 6 6 6 8 8 8 11 19 23 10 10 13 9 9 11 20 41 45 50 49 44 39 34 31 28 26 24 25 26 23 20 17 15 15 14 15 14 17 17 20 21 19 18 17 15 14 14 15
4 4 5 2 7 4 5 12 37 14 16 14 16 10 8 13 27 38 44 51 48 44 39 33 30 27 25 23 22 23 22 21 18 17 14 19 15 14 16 21 22 17 16 15 13 11 9 8 9
5 6 5 6 7 6 4 19 20 14 20 19 12 20 11 25 29 38 42 47 44 40 38 32 28 26 25 22 21 22 23 22 18 17 15 14 17 15 18 15 14 14 12 14 11 9 6 3 2
8 7 8 8 6 4 8 28 16 17 20 16 15 12 13 33 35 37 41 46 46 40 37 34 30 26 25 23 21 20 19 22 21 19 18 16 16 16 14 15 14 12 11 11 10 8 7 7 5
4 8 9 8 9 9 15 26 13 23 14 15 19 10 10 44 40 43 43 44 44 41 37 33 31 29 29 27 23 20 17 19 21 19 20 18 17 17 15 11 10 12 11 10 11 10 10 9 8
5 6 7 11 14 8 19 13 15 15 17 16 23 8 9 49 45 51 50 48 47 46 41 37 33 31 29 27 25 23 20 18 19 18 17 19 18 15 16 13 12 9 9 8 9 10 11 12 11
6 7 16 10 11 10 24 18 31 15 14 13 21 16 15 52 51 58 59 56 55 54 50 43 37 32 30 28 26 24 23 20 18 16 14 13 14 13 15 15 13 13 10 9 8 7 7 8 11
8 11 8 8 10 9 17 13 25 24 5 27 40 33 28 52 52 56 58 55 53 51 51 47 41 36 33 30 27 25 23 22 22 20 16 14 16 16 14 13 11 11 13 12 12 11 11 11 14
6 15 10 9 12 9 12 15 15 27 15 35 30 31 36 51 54 56 57 55 52 51 49 45 42 41 37 33 30 26 26 25 23 21 21 19 17 17 16 15 15 15 15 14 15 15 16 16 17
8 7 19 13 14 11 14 7 7 31 24 14 35 34 40 49 50 51 50 51 48 47 46 45 41 39 39 39 35 32 29 27 25 25 24 22 21 19 19 17 18 16 17 16 16 17 18 19 19
9 12 7 17 16 13 13 6 7 16 41 19 34 43 45 47 47 48 50 48 47 42 42 43 42 38 36 38 39 37 34 30 30 29 27 26 25 23 24 22 21 19 19 18 18 19 19 18 20
6 5 7 10 12 8 12 1 13 15 29 36 36 46 49 50 51 48 46 46 44 42 40 42 39 37 37 34 35 37 35 33 33 31 30 29 27 27 26 26 25 21 22 23 23 22 23 22 23
11 7 8 6 16 7 14 10 20 30 22 37 37 45 53 57 55 48 48 46 44 42 42 41 42 40 38 36 34 35 35 34 33 31 31 30 30 30 30 32 29 25 27 26 26 24 26 26 26
5 9 10 8 23 6 8 10 25 25 42 36 41 47 53 58 59 56 53 49 46 45 44 44 45 44 41 40 39 37 36 38 36 35 35 33 33 32 33 32 31 29 27 28 27 27 29 30 29
14 11 8 13 11 7 11 16 14 22 41 53 47 46 51 58 64 60 57 54 53 50 50 49 49 48 45 44 44 43 42 41 42 40 39 37 37 37 36 36 35 29 31 29 30 30 31 35 35
12 9 9 7 2 7 9 10 27 12 15 33 44 48 55 60 59 60 63 61 59 59 58 56 56 52 52 53 53 53 50 44 45 41 38 38 38 36 36 36 34 36 37 34 33 33 32 32 32
9 7 7 2 3 5 2 16 22 12 22 39 48 56 58 59 64 63 64 69 70 67 65 64 62 59 57 57 56 53 48 47 42 38 36 36 38 37 37 36 36 36 38 32 31 31 32 32 30
7 11 7 5 1 6 6 12 15 15 28 51 61 57 50 61 70 66 64 68 72 76 75 73 69 65 63 63 60 59 59 57 49 42 38 35 38 39 38 36 36 37 40 39 40 36 41 37 35
17 15 12 10 6 6 5 15 11 14 14 12 46 61 74 79 73 69 69 71 77 81 78 79 77 75 73 72 71 70 69 64 56 43 39 32 33 34 37 38 40 42 44 43 41 45 42 41 41
10 12 16 7 7 7 2 2 12 5 12 15 29 57 67 75 78 85 91 92 83 74 76 78 83 82 83 83 80 80 78 74 64 57 53 47 44 46 44 45 47 48 46 45 43 46 43 39 41
18 15 13 8 6 7 14 11 10 10 12 8 12 34 44 55 65 72 78 77 84 81 75 69 70 74 77 81 81 81 78 77 71 67 63 59 59 57 56 53 51 52 46 48 49 48 45 40 39
5 14 5 4 1 12 4 10 24 11 11 10 15 26 22 27 32 31 36 43 60 79 82 77 77 71 62 61 68 75 75 72 71 69 67 66 66 64 62 58 54 54 51 47 50 47 43 38 38
16 16 11 13 12 7 2 14 11 10 27 36 37 37 45 47 49 48 40 37 41 47 58 66 81 76 68 58 56 59 62 66 68 67 66 65 64 62 61 57 54 52 52 48 45 46 49 47 46
11 14 11 11 5 6 8 13 14 8 16 32 30 20 28 25 31 30 30 34 33 34 39 44 51 60 61 58 57 59 60 60 59 57 57 58 58 60 60 55 50 49 48 47 47 46 46 47 48
14 14 6 4 9 7 8 7 9 8 13 14 19 29 28 18 21 20 19 27 27 26 25 28 39 51 56 55 52 49 47 47 49 51 53 52 49 46 46 46 46 44 43 41 41 44 43 46 43
8 10 5 8 8 9 3 9 11 9 7 7 10 20 23 26 31 28 14 9 12 14 20 25 29 32 33 33 34 37 40 42 43 42 39 37 36 36 38 37 33 34 37 44 48 41 47 46 45
2 10 11 11 9 4 4 10 7 8 10 5 12 28 40 43 49 43 24 11 5 4 13 20 25 27 28 30 31 32 34 33 33 33 33 33 33 34 32 30 35 39 42 43 42 43 46 46 43
Wind_Direction_500mb
326 321 173 163 72 68 179 220 141 148 158 165 143 159 187 126 165 202 153 165 164 158 156 154 160 156 159 156 154 156 158 156 159 160 154 144 109 97 112 110 113 111 112 111 108 108 105 97 92
328 242 158 133 98 102 248 200 182 174 147 132 124 127 136 148 148 150 152 163 163 162 160 159 162 161 168 163 158 160 165 171 176 180 181 170 159 121 119 118 112 111 111 108 109 112 103 98 94
327 188 194 101 117 180 200 204 174 149 146 157 123 132 141 157 162 155 158 162 163 166 163 162 164 165 167 169 168 169 169 170 173 177 178 173 164 138 125 120 116 116 116 117 117 116 107 94 86
302 162 71 106 210 245 200 183 165 134 181 170 147 118 137 158 166 164 165 166 165 167 166 166 165 166 169 174 177 177 176 176 175 175 174 179 152 138 134 124 129 131 130 125 122 121 104 90 80
232 167 76 115 257 247 251 185 159 147 152 162 163 173 152 162 162 168 166 169 167 169 171 171 170 170 174 177 185 187 182 177 176 164 156 170 164 150 147 139 136 133 136 131 127 126 112 108 88
170 122 85 210 247 265 239 178 163 148 153 159 155 149 153 158 168 164 168 170 169 172 173 176 178 177 177 175 173 179 185 193 184 174 175 169 169 158 153 155 156 161 152 138 141 142 141 124 91
157 109 202 178 244 282 208 165 176 163 158 193 168 138 170 169 165 170 170 172 174 178 180 180 184 182 181 181 173 172 181 185 182 184 189 180 170 177 160 157 166 169 155 150 164 176 187 203 225
208 101 137 210 189 237 173 166 192 173 190 167 172 182 190 177 166 171 170 174 181 184 187 188 188 190 188 188 187 179 175 176 173 180 185 188 180 185 180 168 171 167 170 172 179 199 214 222 237
206 79 184 206 161 217 168 174 165 181 163 174 188 178 164 174 169 170 174 180 186 191 193 194 194 194 195 198 197 194 190 187 187 182 181 187 185 194 195 194 195 189 183 186 194 207 225 236 249
155 148 215 208 188 189 181 182 162 159 162 201 196 194 169 176 179 179 183 186 191 194 195 197 199 200 200 203 210 208 205 206 206 201 197 192 195 197 200 206 210 214 213 207 211 224 238 260 268
198 200 207 231 205 164 177 200 176 145 196 206 203 193 178 179 187 190 192 196 196 197 199 200 202 205 209 210 216 218 218 218 219 219 217 214 213 215 217 219 230 239 240 246 250 255 266 272 274
222 241 196 189 185 162 164 173 192 193 190 217 215 213 191 188 195 198 200 201 201 200 203 206 208 211 213 213 219 225 225 225 228 231 230 231 232 232 235 239 244 246 247 249 257 269 277 281 281
194 244 209 189 182 163 153 178 210 227 205 198 202 209 208 199 201 204 205 207 207 207 208 207 209 214 216 219 220 223 227 230 233 234 236 237 238 239 243 243 249 251 253 256 264 271 275 276 280
237 223 258 213 199 185 154 151 175 238 215 210 199 204 209 210 208 205 207 209 211 208 206 206 212 216 220 225 226 229 232 233 233 236 240 244 245 246 247 247 249 251 254 257 260 268 276 281 282
198 157 320 233 212 210 163 175 231 232 205 214 205 202 208 212 212 212 212 210 211 211 209 211 215 220 225 228 229 232 235 237 238 241 243 248 251 251 253 253 252 253 257 258 263 268 275 281 286
148 116 194 257 160 229 172 241 247 211 204 213 212 209 209 212 217 216 217 218 217 218 219 219 221 225 228 231 233 234 235 238 240 242 245 249 252 253 254 254 255 256 255 259 264 270 274 279 284
330 189 199 281 205 134 160 230 248 207 210 216 219 215 215 215 221 222 221 221 223 225 226 228 230 232 232 236 239 241 242 243 245 247 249 250 253 254 256 255 253 250 257 261 268 276 284 290 292
171 168 201 197 217 198 173 232 247 210 210 218 219 221 219 222 225 226 227 226 227 229 232 234 236 238 238 240 242 244 245 244 245 246 250 253 256 255 256 262 255 254 256 265 269 277 282 286 289
140 142 165 228 123 153 219 257 258 231 232 233 224 223 223 225 229 230 229 231 232 232 233 235 236 236 237 238 238 239 242 245 246 249 253 257 255 255 256 258 257 251 256 260 266 270 279 283 290
131 141 175 179 79 146 88 261 262 233 239 237 232 228 230 229 232 232 230 231 233 234 235 237 238 237 237 239 241 243 247 249 251 252 254 257 255 253 255 258 259 256 255 259 261 268 278 282 284
157 152 155 141 102 67 344 276 255 255 228 244 244 245 239 239 239 237 236 235 237 237 236 237 239 239 238 240 241 242 243 245 245 247 251 263 254 253 258 260 259 256 247 248 261 269 272 277 279
207 158 142 129 104 217 34 277 276 261 254 234 241 238 241 240 243 242 240 243 243 243 243 242 241 242 240 241 242 243 245 246 247 252 257 260 253 251 254 256 257 257 252 251 249 260 264 266 273
200 166 155 120 100 57 225 293 269 318 276 265 241 246 247 247 245 248 251 251 247 245 245 245 245 244 242 242 243 245 246 247 247 248 250 249 251 251 254 257 257 257 251 251 251 249 251 259 271
144 100 63 66 125 245 181 174 209 197 212 256 243 244 250 255 258 256 255 255 249 245 245 246 245 243 242 242 242 243 243 245 244 245 248 249 251 253 256 258 259 255 248 242 244 250 254 256 262
149 141 99 94 177 231 325 197 254 255 255 235 269 276 269 277 277 275 266 264 260 249 247 246 242 238 238 239 240 241 241 241 242 245 248 249 250 253 257 258 260 255 248 245 243 246 247 251 258
181 165 159 182 195 203 48 230 240 246 286 279 272 268 284 290 286 279 275 280 284 252 243 242 239 238 236 237 236 234 234 236 240 244 247 247 250 253 254 253 256 249 246 246 244 242 244 246 256
202 201 145 102 50 72 216 290 291 269 277 295 302 309 301 298 310 299 276 263 276 265 250 248 236 227 225 227 229 231 232 235 240 243 246 250 250 252 255 253 247 243 242 240 244 248 245 253 257
179 151 106 47 134 225 256 275 229 278 295 335 337 343 342 354 342 326 287 251 259 260 235 222 213 215 218 220 223 228 232 236 241 244 248 250 250 248 246 243 241 241 235 241 248 247 249 251 255
146 175 145 124 155 173 209 260 216 203 11 18 339 16 16 16 16 8 360 300 254 217 208 205 202 204 210 215 222 231 235 237 241 243 244 244 241 239 236 238 235 238 243 243 254 248 247 248 254
244 163 180 193 197 213 127 263 205 194 95 74 44 52 56 50 38 28 17 18 10 227 212 215 216 215 219 224 229 235 239 236 240 240 238 238 238 236 235 228 230 233 242 243 238 243 246 247 246
Wind_Speed_850mb
17 8 8 9 5 7 3 7 5 6 6 7 20 10 10 7 7 3 25 46 43 43 43 41 36 35 32 30 28 28 29 25 22 17 10 7 4 10 18 22 25 25 28 28 29 27 26 27 28
13 2 12 4 7 5 6 5 13 11 12 27 22 17 7 4 7 12 47 40 46 43 43 41 37 36 33 30 28 26 24 22 19 14 11 9 6 9 18 23 26 25 26 26 26 24 24 24 25
9 9 4 6 6 8 8 9 12 14 30 10 10 7 9 11 12 40 40 45 49 43 39 36 36 33 30 28 26 24 23 20 16 14 13 12 10 14 19 21 23 23 23 23 22 19 19 19 21
4 6 6 6 8 8 8 11 19 23 10 10 13 9 9 11 20 41 45 50 49 44 39 34 31 28 26 24 25 26 23 20 17 15 15 14 15 14 17 17 20 21 19 18 17 15 14 14 15
4 4 5 2 7 4 5 12 37 14 16 14 16 10 8 13 27 38 44 51 48 44 39 33 30 27 25 23 22 23 22 21 18 17 14 19 15 14 16 21 22 17 16 15 13 11 9 8 9
5 6 5 6 7 6 4 19 20 14 20 19 12 20 11 25 29 38 42 47 44 40 38 32 28 26 25 22 21 22 23 22 18 17 15 14 17 15 18 15 14 14 12 14 11 9 6 3 2
8 7 8 8 6 4 8 28 16 17 20 16 15 12 13 33 35 37 41 46 46 40 37 34 30 26 25 23 21 20 19 22 21 19 18 16 16 16 14 15 14 12 11 11 10 8 7 7 5
4 8 9 8 9 9 15 26 13 23 14 15 19 10 10 44 40 43 43 44 44 41 37 33 31 29 29 27 23 20 17 19 21 19 20 18 17 17 15 11 10 12 11 10 11 10 10 9 8
5 6 7 11 14 8 19 13 15 15 17 16 23 8 9 49 45 51 50 48 47 46 41 37 33 31 29 27 25 23 20 18 19 18 17 19 18 15 16 13 12 9 9 8 9 10 11 12 11
6 7 16 10 11 10 24 18 31 15 14 13 21 16 15 52 51 58 59 56 55 54 50 43 37 32 30 28 26 24 23 20 18 16 14 13 14 13 15 15 13 13 10 9 8 7 7 8 11
8 11 8 8 10 9 17 13 25 24 5 27 40 33 28 52 52 56 58 55 53 51 51 47 41 36 33 30 27 25 23 22 22 20 16 14 16 16 14 13 11 11 13 12 12 11 11 11 14
6 15 10 9 12 9 12 15 15 27 15 35 30 31 36 51 54 56 57 55 52 51 49 45 42 41 37 33 30 26 26 25 23 21 21 19 17 17 16 15 15 15 15 14 15 15 16 16 17
8 7 19 13 14 11 14 7 7 31 24 14 35 34 40 49 50 51 50 51 48 47 46 45 41 39 39 39 35 32 29 27 25 25 24 22 21 19 19 17 18 16 17 16 16 17 18 19 19
9 12 7 17 16 13 13 6 7 16 41 19 34 43 45 47 47 48 50 48 47 42 42 43 42 38 36 38 39 37 34 30 30 29 27 26 25 23 24 22 21 19 19 18 18 19 19 18 20
6 5 7 10 12 8 12 1 13 15 29 36 36 46 49 50 51 48 46 46 44 42 40 42 39 37 37 34 35 37 35 33 33 31 30 29 27 27 26 26 25 21 22 23 23 22 23 22 23
11 7 8 6 16 7 14 10 20 30 22 37 37 45 53 57 55 48 48 46 44 42 42 41 42 40 38 36 34 35 35 34 33 31 31 30 30 30 30 32 29 25 27 26 26 24 26 26 26
5 9 10 8 23 6 8 10 25 25 42 36 41 47 53 58 59 56 53 49 46 45 44 44 45 44 41 40 39 37 36 38 36 35 35 33 33 32 33 32 31 29 27 28 27 27 29 30 29
14 11 8 13 11 7 11 16 14 22 41 53 47 46 51 58 64 60 57 54 53 50 50 49 49 48 45 44 44 43 42 41 42 40 39 37 37 37 36 36 35 29 31 29 30 30 31 35 35
12 9 9 7 2 7 9 10 27 12 15 33 44 48 55 60 59 60 63 61 59 59 58 56 56 52 52 53 53 53 50 44 45 41 38 38 38 36 36 36 34 36 37 34 33 33 32 32 32
9 7 7 2 3 5 2 16 22 12 22 39 48 56 58 59 64 63 64 69 70 67 65 64 62 59 57 57 56 53 48 47 42 38 36 36 38 37 37 36 36 36 38 32 31 31 32 32 30
7 11 7 5 1 6 6 12 15 15 28 51 61 57 50 61 70 66 64 68 72 76 75 73 69 65 63 63 60 59 59 57 49 42 38 35 38 39 38 36 36 37 40 39 40 36 41 37 35
17 15 12 10 6 6 5 15 11 14 14 12 46 61 74 79 73 69 69 71 77 81 78 79 77 75 73 72 71 70 69 64 56 43 39 32 33 34 37 38 40 42 44 43 41 45 42 41 41
10 12 16 7 7 7 2 2 12 5 12 15 29 57 67 75 78 85 91 92 83 74 76 78 83 82 83 83 80 80 78 74 64 57 53 47 44 46 44 45 47 48 46 45 43 46 43 39 41
18 15 13 8 6 7 14 11 10 10 12 8 12 34 44 55 65 72 78 77 84 81 75 69 70 74 77 81 81 81 78 77 71 67 63 59 59 57 56 53 51 52 46 48 49 48 45 40 39
5 14 5 4 1 12 4 10 24 11 11 10 15 26 22 27 32 31 36 43 60 79 82 77 77 71 62 61 68 75 75 72 71 69 67 66 66 64 62 58 54 54 51 47 50 47 43 38 38
16 16 11 13 12 7 2 14 11 10 27 36 37 37 45 47 49 48 40 37 41 47 58 66 81 76 68 58 56 59 62 66 68 67 66 65 64 62 61 57 54 52 52 48 45 46 49 47 46
11 14 11 11 5 6 8 13 14 8 16 32 30 20 28 25 31 30 30 34 33 34 39 44 51 60 61 58 57 59 60 60 59 57 57 58 58 60 60 55 50 49 48 47 47 46 46 47 48
14 14 6 4 9 7 8 7 9 8 13 14 19 29 28 18 21 20 19 27 27 26 25 28 39 51 56 55 52 49 47 47 49 51 53 52 49 46 46 46 46 44 43 41 41 44 43 46 43
8 10 5 8 8 9 3 9 11 9 7 7 10 20 23 26 31 28 14 9 12 14 20 25 29 32 33 33 34 37 40 42 43 42 39 37 36 36 38 37 33 34 37 44 48 41 47 46 45
2 10 11 11 9 4 4 10 7 8 10 5 12 28 40 43 49 43 24 11 5 4 13 20 25 27 28 30 31 32 34 33 33 33 33 33 33 34 32 30 35 39 42 43 42 43 46 46 43
Wind_Direction_850mb
326 321 173 163 72 68 179 220 141 148 158 165 143 159 187 126 165 202 153 165 164 158 156 154 160 156 159 156 154 156 158 156 159 160 154 144 109 97 112 110 113 111 112 111 108 108 105 97 92
328 242 158 133 98 102 248 200 182 174 147 132 124 127 136 148 148 150 152 163 163 162 160 159 162 161 168 163 158 160 165 171 176 180 181 170 159 121 119 118 112 111 111 108 109 112 103 98 94
327 188 194 101 117 180 200 204 174 149 146 157 123 132 141 157 162 155 158 162 163 166 163 162 164 165 167 169 168 169 169 170 173 177 178 173 164 138 125 120 116 116 116 117 117 116 107 94 86
302 162 71 106 210 245 200 183 165 134 181 170 147 118 137 158 166 164 165 166 165 167 166 166 165 166 169 174 177 177 176 176 175 175 174 179 152 138 134 124 129 131 130 125 122 121 104 90 80
232 167 76 115 257 247 251 185 159 147 152 162 163 173 152 162 162 168 166 169 167 169 171 171 170 170 174 177 185 187 182 177 176 164 156 170 164 150 147 139 136 133 136 131 127 126 112 108 88
170 122 85 210 247 265 239 178 163 148 153 159 155 149 153 158 168 164 168 170 169 172 173 176 178 177 177 175 173 179 185 193 184 174 175 169 169 158 153 155 156 161 152 138 141 142 141 124 91
157 109 202 178 244 282 208 165 176 163 158 193 168 138 170 169 165 170 170 172 174 178 180 180 184 182 181 181 173 172 181 185 182 184 189 180 170 177 160 157 166 169 155 150 164 176 187 203 225
208 101 137 210 189 237 173 166 192 173 190 167 172 182 190 177 166 171 170 174 181 184 187 188 188 190 188 188 187 179 175 176 173 180 185 188 180 185 180 168 171 167 170 172 179 199 214 222 237
206 79 184 206 161 217 168 174 165 181 163 174 188 178 164 174 169 170 174 180 186 191 193 194 194 194 195 198 197 194 190 187 187 182 181 187 185 194 195 194 195 189 183 186 194 207 225 236 249
155 148 215 208 188 189 181 182 162 159 162 201 196 194 169 176 179 179 183 186 191 194 195 197 199 200 200 203 210 208 205 206 206 201 197 192 195 197 200 206 210 214 213 207 211 224 238 260 268
198 200 207 231 205 164 177 200 176 145 196 206 203 193 178 179 187 190 192 196 196 197 199 200 202 205 209 210 216 218 218 218 219 219 217 214 213 215 217 219 230 239 240 246 250 255 266 272 274
222 241 196 189 185 162 164 173 192 193 190 217 215 213 191 188 195 198 200 201 201 200 203 206 208 211 213 213 219 225 225 225 228 231 230 231 232 232 235 239 244 246 247 249 257 269 277 281 281
194 244 209 189 182 163 153 178 210 227 205 198 202 209 208 199 201 204 205 207 207 207 208 207 209 214 216 219 220 223 227 230 233 234 236 237 238 239 243 243 249 251 253 256 264 271 275 276 280
237 223 258 213 199 185 154 151 175 238 215 210 199 204 209 210 208 205 207 209 211 208 206 206 212 216 220 225 226 229 232 233 233 236 240 244 245 246 247 247 249 251 254 257 260 268 276 281 282
198 157 320 233 212 210 163 175 231 232 205 214 205 202 208 212 212 212 212 210 211 211 209 211 215 220 225 228 229 232 235 237 238 241 243 248 251 251 253 253 252 253 257 258 263 268 275 281 286
148 116 194 257 160 229 172 241 247 211 204 213 212 209 209 212 217 216 217 218 217 218 219 219 221 225 228 231 233 234 235 238 240 242 245 249 252 253 254 254 255 256 255 259 264 270 274 279 284
330 189 199 281 205 134 160 230 248 207 210 216 219 215 215 215 221 222 221 221 223 225 226 228 230 232 232 236 239 241 242 243 245 247 249 250 253 254 256 255 253 250 257 261 268 276 284 290 292
171 168 201 197 217 198 173 232 247 210 210 218 219 221 219 222 225 226 227 226 227 229 232 234 236 238 238 240 242 244 245 244 245 246 250 253 256 255 256 262 255 254 256 265 269 277 282 286 289
140 142 165 228 123 153 219 257 258 231 232 233 224 223 223 225 229 230 229 231 232 232 233 235 236 236 237 238 238 239 242 245 246 249 253 257 255 255 256 258 257 251 256 260 266 270 279 283 290
131 141 175 179 79 146 88 261 262 233 239 237 232 228 230 229 232 232 230 231 233 234 235 237 238 237 237 239 241 243 247 249 251 252 254 257 255 253 255 258 259 256 255 259 261 268 278 282 284
157 152 155 141 102 67 344 276 255 255 228 244 244 245 239 239 239 237 236 235 237 237 236 237 239 239 238 240 241 242 243 245 245 247 251 263 254 253 258 260 259 256 247 248 261 269 272 277 279
207 158 142 129 104 217 34 277 276 261 254 234 241 238 241 240 243 242 240 243 243 243 243 242 241 242 240 241 242 243 245 246 247 252 257 260 253 251 254 256 257 257 252 251 249 260 264 266 273
200 166 155 120 100 57 225 293 269 318 276 265 241 246 247 247 245 248 251 251 247 245 245 245 245 244 242 242 243 245 246 247 247 248 250 249 251 251 254 257 257 257 251 251 251 249 251 259 271
144 100 63 66 125 245 181 174 209 197 212 256 243 244 250 255 258 256 255 255 249 245 245 246 245 243 242 242 242 243 243 245 244 245 248 249 251 253 256 258 259 255 248 242 244 250 254 256 262
149 141 99 94 177 231 325 197 254 255 255 235 269 276 269 277 277 275 266 264 260 249 247 246 242 238 238 239 240 241 241 241 242 245 248 249 250 253 257 258 260 255 248 245 243 246 247 251 258
181 165 159 182 195 203 48 230 240 246 286 279 272 268 284 290 286 279 275 280 284 252 243 242 239 238 236 237 236 234 234 236 240 244 247 247 250 253 254 253 256 249 246 246 244 242 244 246 256
202 201 145 102 50 72 216 290 291 269 277 295 302 309 301 298 310 299 276 263 276 265 250 248 236 227 225 227 229 231 232 235 240 243 246 250 250 252 255 253 247 243 242 240 244 248 245 253 257
179 151 106 47 134 225 256 275 229 278 295 335 337 343 342 354 342 326 287 251 259 260 235 222 213 215 218 220 223 228 232 236 241 244 248 250 250 248 246 243 241 241 235 241 248 247 249 251 255
146 175 145 124 155 173 209 260 216 203 11 18 339 16 16 16 16 8 360 300 254 217 208 205 202 204 210 215 222 231 235 237 241 243 244 244 241 239 236 238 235 238 243 243 254 248 247 248 254
244 163 180 193 197 213 127 263 205 194 95 74 44 52 56 50 38 28 17 18 10 227 212 215 216 215 219 224 229 235 239 236 240 240 238 238 238 236 235 228 230 233 242 243 238 243 246 247 246